Temp
71 70 70 70 68 68 69 68 65 63 65 66 67 70 71 72 74 74 74 74 73 71 71 71 72 73 74 74 75 75 75 75 75 75 75 75 76 77
72 70 70 70 69 69 69 67 68 66 63 67 68 69 71 74 73 72 74 74 73 72 71 70 71 72 72 73 73 73 73 73 73 73 73 73 74 74
71 71 70 70 69 69 69 69 69 67 65 67 68 69 68 69 72 72 75 73 73 71 71 70 69 70 71 71 71 71 71 71 72 72 72 72 73 73
71 71 71 73 69 69 69 69 69 69 65 65 69 69 68 70 71 72 76 79 74 72 70 69 69 68 68 69 69 69 68 69 69 69 71 71 72 72
71 70 71 71 69 69 69 69 69 71 69 68 69 70 70 71 71 72 73 73 75 74 70 69 69 68 67 66 65 65 64 64 65 65 66 67 69 70
71 71 71 71 71 70 70 69 70 69 69 68 68 69 70 73 72 71 71 72 72 77 74 72 70 69 68 66 65 65 63 61 61 61 62 63 64 66
72 72 72 73 73 71 71 70 69 68 68 67 67 66 68 70 71 70 70 69 70 72 72 72 71 70 70 67 69 68 65 63 62 61 60 60 60 61
72 71 72 73 72 71 70 70 70 69 68 67 67 66 67 69 69 69 68 67 67 70 70 70 71 71 71 71 69 67 65 64 62 61 59 58 60 60
72 72 71 77 72 74 71 68 68 68 72 71 68 68 67 68 69 69 68 67 67 70 71 70 70 70 71 68 64 64 63 62 61 60 59 59 58 55
74 73 72 74 74 72 71 70 70 70 69 71 72 75 72 72 71 71 70 69 69 69 70 67 68 69 69 64 62 62 60 59 59 57 56 54 52 52
72 72 72 73 70 67 70 70 70 71 69 66 67 67 67 66 69 69 68 67 66 67 69 68 67 67 66 63 62 60 58 56 55 55 55 53 51 51
70 71 67 70 64 62 69 70 69 71 69 71 67 65 64 66 65 70 69 67 66 65 68 68 66 66 64 62 59 58 56 54 53 54 55 52 50 53
66 66 68 63 60 60 61 69 72 74 69 70 69 69 69 69 68 68 70 70 66 67 69 69 66 65 63 61 60 59 57 56 56 54 53 53 53 54
64 64 65 61 58 58 59 62 62 62 68 68 68 69 69 69 70 69 69 70 72 71 69 69 67 68 65 62 62 61 58 58 56 54 53 53 53 54
63 62 62 58 57 58 58 60 60 64 68 68 69 71 71 71 70 68 68 68 68 68 68 67 69 66 65 63 62 60 59 57 56 54 52 52 52 51
62 61 62 62 60 64 63 61 63 65 67 69 69 71 69 67 67 67 68 66 66 63 64 65 66 65 62 62 62 59 56 56 53 53 52 51 51 51
61 62 63 63 64 64 65 65 63 64 65 67 68 67 67 66 66 65 65 65 66 63 61 60 61 62 60 59 56 56 54 54 53 52 51 50 51 51
59 62 62 63 63 65 65 65 65 65 66 67 67 67 66 66 66 66 65 66 66 63 62 60 59 57 57 58 61 56 54 54 53 52 51 51 51 52
61 60 60 62 63 64 66 67 67 67 67 67 67 66 66 65 64 66 67 66 65 64 61 60 59 56 53 53 55 58 56 53 52 51 51 51 52 53
61 61 61 62 62 63 63 66 68 66 65 66 66 66 66 66 66 67 67 66 66 61 60 59 58 56 57 56 56 57 55 55 54 53 52 51 53 57
59 61 62 62 62 63 65 67 68 67 67 66 67 66 66 66 67 67 67 60 60 62 62 59 62 62 58 58 56 56 57 54 57 56 53 53 52 51
62 62 63 63 63 64 65 67 68 67 66 67 67 67 67 67 67 66 66 64 62 62 63 62 59 58 56 58 58 56 56 56 54 55 57 59 54 52
61 62 62 64 65 65 64 66 68 68 67 67 66 66 66 66 66 65 65 64 63 62 59 56 56 57 58 59 60 58 54 56 55 53 58 57 56 57
MSLP
1016.49 1016.64 1016.59 1016.78 1017.04 1017.06 1017.07 1017.14 1017.26 1017.93 1017.69 1016.92 1016.99 1016.44 1016.41 1016.49 1016.51 1016.68 1016.78 1016.78 1017.05 1017.28 1017.46 1017.77 1017.90 1018.16 1018.42 1018.58 1018.69 1018.90 1019.14 1019.29 1019.37 1019.43 1019.54 1019.69 1019.73 1019.71
1016.13 1016.23 1016.28 1016.36 1016.53 1016.66 1016.68 1016.87 1016.87 1017.09 1017.69 1017.09 1016.79 1016.55 1016.22 1016.12 1016.19 1016.29 1016.16 1016.20 1016.35 1016.53 1016.70 1016.94 1017.20 1017.37 1017.66 1018.00 1018.14 1018.28 1018.48 1018.64 1018.78 1018.88 1019.02 1019.13 1019.21 1019.29
1015.89 1015.93 1016.04 1016.01 1016.05 1016.33 1016.37 1016.50 1016.71 1016.93 1017.39 1016.98 1016.61 1016.30 1016.08 1015.80 1015.67 1015.66 1015.55 1015.73 1015.79 1015.96 1016.20 1016.43 1016.56 1016.86 1016.96 1017.17 1017.37 1017.57 1017.85 1018.07 1018.17 1018.27 1018.32 1018.39 1018.48 1018.55
1015.55 1015.61 1015.51 1015.59 1015.65 1015.78 1015.99 1016.06 1016.17 1016.40 1016.70 1016.80 1016.32 1016.06 1015.91 1015.50 1015.33 1015.22 1015.10 1014.98 1015.19 1015.48 1015.78 1015.90 1015.92 1016.04 1016.15 1016.39 1016.62 1016.95 1017.20 1017.34 1017.44 1017.36 1017.35 1017.57 1017.70 1017.80
1014.85 1015.11 1015.07 1015.17 1015.24 1015.43 1015.52 1015.70 1015.82 1015.74 1016.16 1016.70 1016.09 1015.64 1015.39 1015.49 1015.30 1015.05 1014.98 1014.81 1014.73 1014.75 1015.04 1015.14 1015.35 1015.43 1015.61 1015.82 1016.06 1016.27 1016.54 1016.67 1016.73 1016.75 1016.87 1016.97 1017.05 1017.15
1014.14 1014.34 1014.44 1014.58 1014.46 1014.66 1015.01 1015.13 1015.27 1015.53 1015.78 1015.98 1015.99 1015.88 1015.47 1014.87 1015.33 1015.14 1014.97 1014.82 1014.82 1014.59 1014.60 1014.65 1014.77 1014.99 1015.07 1015.12 1015.41 1015.64 1015.82 1015.93 1016.06 1016.12 1016.23 1016.36 1016.50 1016.64
1013.36 1013.63 1013.74 1013.75 1013.63 1013.69 1014.14 1014.36 1014.68 1015.03 1015.28 1015.54 1015.85 1015.99 1015.68 1015.47 1015.32 1015.10 1015.09 1015.11 1014.87 1014.72 1014.68 1014.60 1014.63 1014.63 1014.44 1014.56 1014.83 1014.95 1015.03 1015.14 1015.35 1015.54 1015.69 1015.80 1015.92 1016.18
1012.68 1012.84 1013.01 1013.09 1013.12 1013.09 1013.22 1013.53 1013.72 1014.20 1014.53 1014.93 1015.16 1015.48 1015.40 1015.30 1015.18 1014.99 1015.01 1015.11 1015.11 1014.62 1014.77 1014.52 1014.28 1014.29 1014.06 1014.14 1014.28 1014.37 1014.46 1014.42 1014.63 1014.93 1015.20 1015.43 1015.73 1016.01
1011.81 1012.03 1012.34 1012.37 1012.57 1012.68 1012.71 1012.72 1013.08 1013.19 1013.19 1013.57 1014.12 1014.38 1014.52 1014.56 1014.69 1014.78 1014.93 1014.97 1014.97 1014.60 1014.54 1014.47 1014.30 1014.23 1013.82 1014.08 1014.30 1014.17 1014.10 1014.11 1014.33 1014.67 1015.06 1015.43 1015.76 1016.09
1010.59 1010.99 1011.40 1011.53 1011.71 1012.01 1012.35 1012.39 1012.30 1012.37 1012.57 1012.85 1012.94 1012.92 1013.03 1013.32 1013.63 1013.82 1014.09 1014.40 1014.41 1014.24 1014.22 1014.52 1014.21 1014.18 1013.94 1014.31 1014.38 1014.27 1014.28 1014.35 1014.62 1014.98 1015.39 1015.80 1016.05 1016.11
1009.62 1009.87 1010.30 1010.65 1010.87 1011.31 1011.81 1011.89 1011.78 1011.64 1011.48 1011.80 1011.87 1012.02 1012.14 1012.40 1012.69 1013.41 1013.88 1014.25 1014.25 1014.04 1013.85 1014.10 1013.99 1014.02 1014.09 1014.45 1014.72 1014.76 1014.84 1014.90 1015.04 1015.29 1015.60 1015.86 1015.98 1015.99
1009.03 1009.21 1009.53 1009.81 1010.20 1010.50 1010.85 1010.99 1011.22 1010.84 1011.12 1011.46 1011.82 1011.95 1011.87 1011.86 1012.48 1012.49 1012.77 1013.45 1013.86 1013.76 1013.25 1013.64 1013.68 1013.94 1014.34 1014.59 1014.96 1015.18 1015.31 1015.47 1015.46 1015.47 1015.60 1015.76 1015.77 1015.80
1008.93 1009.46 1009.70 1009.53 1009.67 1009.79 1009.97 1010.24 1009.91 1009.92 1010.19 1010.47 1010.78 1011.03 1011.19 1011.39 1011.69 1011.80 1011.94 1012.30 1012.78 1012.83 1012.52 1012.79 1013.17 1013.62 1014.13 1014.67 1014.91 1015.16 1015.29 1015.53 1015.54 1015.59 1015.57 1015.52 1015.53 1015.62
1009.03 1009.08 1009.53 1010.09 1009.56 1009.14 1009.32 1009.23 1009.18 1009.42 1009.76 1010.03 1010.28 1010.40 1010.50 1010.67 1010.82 1010.93 1010.91 1011.17 1011.23 1011.46 1011.66 1011.99 1012.51 1012.88 1013.56 1014.30 1014.65 1014.84 1015.06 1015.10 1015.37 1015.42 1015.38 1015.39 1015.39 1015.37
1005.18 1006.60 1009.05 1008.60 1008.72 1008.62 1008.12 1008.66 1008.61 1009.09 1009.21 1009.52 1009.44 1009.23 1009.35 1009.42 1009.79 1010.25 1010.34 1010.58 1010.89 1011.07 1011.20 1011.48 1011.74 1012.25 1012.87 1013.45 1014.04 1014.42 1014.69 1014.78 1014.87 1015.16 1015.28 1015.36 1015.32 1015.30
1005.88 1005.87 1005.73 1008.15 1007.51 1007.62 1007.51 1007.31 1008.00 1007.99 1008.29 1008.35 1008.30 1008.09 1008.33 1008.87 1009.26 1009.52 1010.09 1010.49 1010.90 1011.19 1011.21 1011.13 1011.30 1011.78 1012.47 1012.92 1013.40 1013.89 1014.13 1014.62 1014.60 1014.85 1015.01 1014.96 1014.84 1015.01
1005.95 1006.46 1007.11 1007.06 1005.94 1006.67 1006.83 1006.69 1006.70 1006.95 1007.20 1007.33 1007.51 1007.63 1007.88 1008.15 1008.52 1008.98 1009.55 1009.96 1010.28 1010.68 1011.13 1011.53 1011.57 1011.61 1012.05 1012.50 1013.02 1013.36 1013.70 1014.15 1014.13 1014.52 1014.90 1014.88 1014.60 1014.56
1006.08 1005.86 1005.11 1004.86 1004.78 1005.70 1005.89 1005.89 1006.07 1005.47 1005.71 1006.18 1006.49 1006.67 1007.09 1007.28 1007.70 1008.23 1008.81 1009.17 1009.53 1009.86 1010.35 1010.93 1011.39 1012.01 1012.21 1012.06 1011.95 1012.49 1013.18 1013.65 1013.80 1014.13 1014.40 1014.69 1014.44 1014.03
1004.50 1004.30 1004.21 1004.15 1004.26 1004.35 1004.52 1004.65 1004.91 1004.29 1004.06 1004.65 1005.19 1005.48 1006.03 1006.25 1006.94 1007.47 1007.88 1008.28 1008.77 1009.08 1009.52 1010.09 1010.75 1011.34 1011.96 1012.06 1011.59 1011.42 1012.11 1012.75 1013.27 1013.74 1013.84 1014.12 1014.03 1013.73
1003.32 1003.21 1003.09 1003.24 1003.35 1003.32 1003.48 1003.53 1003.57 1003.38 1003.48 1003.29 1003.76 1004.27 1005.00 1005.34 1005.94 1006.51 1006.88 1007.19 1007.62 1008.29 1008.94 1009.53 1009.84 1010.16 1010.32 1010.68 1011.07 1010.83 1010.79 1011.61 1012.30 1012.68 1013.09 1013.31 1013.19 1013.23
1002.20 1002.15 1002.11 1002.16 1002.18 1002.37 1002.26 1002.23 1001.92 1001.86 1002.11 1002.30 1002.37 1003.09 1003.93 1004.46 1004.89 1005.37 1005.81 1006.11 1006.61 1007.31 1007.93 1008.32 1008.19 1008.74 1009.52 1009.94 1010.63 1010.71 1010.51 1010.61 1010.72 1011.23 1011.95 1012.53 1012.80 1012.89
1000.80 1000.88 1000.95 1000.96 1001.01 1000.96 1001.08 1001.20 1000.60 1000.86 1001.09 1001.27 1001.16 1001.99 1002.72 1003.38 1003.83 1004.30 1004.82 1005.31 1005.71 1006.13 1006.42 1006.88 1007.71 1008.62 1009.34 1009.58 1009.85 1010.19 1010.16 1010.19 1010.38 1010.49 1010.41 1010.27 1011.06 1011.40
999.80 999.91 999.93 999.88 999.73 999.76 999.93 1000.24 999.94 1000.12 1000.31 1000.12 1000.43 1001.06 1001.75 1002.43 1002.88 1003.26 1003.76 1004.38 1004.73 1005.21 1005.67 1006.62 1007.38 1008.00 1008.42 1008.80 1009.06 1009.46 1009.76 1009.80 1010.07 1010.43 1010.27 1009.72 1009.81 1009.87
Wind_Speed
4 4 3 2 4 4 3 3 5 3 2 3 3 4 3 4 6 5 6 10 15 16 16 16 17 17 17 17 16 15 14 13 12 12 11 11 12 13
4 5 4 3 4 5 4 4 2 4 1 3 3 4 3 4 6 6 8 9 13 15 15 16 16 17 16 15 14 14 14 14 13 12 11 11 11 12
5 6 6 5 4 4 4 2 3 3 4 3 3 1 3 5 4 5 5 6 5 12 12 14 14 14 15 15 15 15 14 13 14 13 13 13 13 13
7 6 6 4 6 5 4 5 4 6 4 5 3 4 5 3 4 4 4 5 4 6 11 14 13 15 15 15 14 13 14 14 14 15 15 14 14 14
8 7 7 6 6 4 5 5 4 4 4 4 3 2 2 2 4 3 3 3 3 7 9 12 12 12 13 13 11 12 13 13 15 14 13 13 13 13
7 8 7 7 8 7 6 7 5 4 4 3 3 2 2 2 2 2 3 1 3 2 6 7 7 11 13 12 11 12 14 14 14 13 13 13 11 10
8 8 8 9 12 9 5 6 6 4 4 4 2 2 2 2 3 1 2 1 2 3 2 2 2 3 4 7 9 14 14 14 13 11 11 12 10 8
10 8 8 11 11 13 13 12 8 8 6 4 3 4 4 3 2 2 1 1 2 2 2 2 2 2 2 3 4 8 9 10 9 8 7 7 6 5
10 9 7 8 10 9 12 12 11 11 8 7 6 6 5 7 5 3 3 3 3 3 2 3 1 3 1 3 6 5 1 4 7 8 8 8 7 4
12 11 11 10 9 10 9 7 9 7 9 7 8 9 7 6 6 5 5 3 2 3 3 3 1 3 1 3 8 3 7 10 11 12 11 8 5 2
11 11 12 12 12 14 10 9 8 8 8 13 13 11 10 11 8 4 3 3 3 3 3 3 3 3 1 2 3 8 8 10 11 11 9 6 4 3
9 10 14 13 14 15 12 10 10 11 6 5 4 7 10 8 11 7 5 5 4 2 4 5 2 3 2 1 2 2 3 5 5 5 6 4 4 3
2 2 5 11 14 15 16 10 12 10 8 7 6 5 4 6 5 7 7 6 5 5 4 4 3 2 1 2 1 3 3 2 2 2 1 2 2 2
1 2 6 15 13 13 11 17 14 10 4 5 5 6 6 7 6 7 9 9 7 7 6 6 3 4 4 3 3 3 3 2 3 2 2 3 5 6
1 8 29 17 15 11 14 16 13 6 7 7 9 9 8 7 4 3 4 4 3 4 4 6 4 4 4 3 3 3 3 4 4 3 2 3 2 2
12 14 12 18 13 14 9 9 8 8 9 10 9 8 4 4 4 4 5 4 3 2 2 4 5 5 4 3 4 3 4 4 3 4 2 2 2 3
9 8 10 11 8 7 9 8 8 8 9 9 8 7 7 5 5 4 4 4 6 5 4 3 3 3 3 5 3 4 4 3 4 4 2 2 3 4
8 12 12 10 8 8 7 8 10 12 10 9 9 8 8 8 6 5 4 7 8 6 6 4 4 2 2 3 8 4 4 4 4 5 3 2 3 3
9 9 10 10 10 7 7 8 11 11 11 10 9 9 8 6 6 7 7 7 8 7 4 5 5 4 4 5 3 8 5 5 4 3 4 4 4 3
9 9 8 7 7 7 8 10 11 8 10 10 10 9 8 8 7 7 9 10 10 5 5 5 6 6 7 8 5 3 14 5 5 4 4 2 3 4
11 11 9 9 9 9 9 12 12 10 10 10 10 9 9 9 8 9 10 12 10 7 9 9 12 10 4 4 1 2 3 13 6 6 5 4 3 1
9 10 10 10 9 9 9 9 8 10 10 10 9 9 9 9 10 11 10 9 9 9 8 5 7 7 4 6 6 5 3 2 8 5 8 11 7 5
11 10 10 10 9 9 9 9 9 9 9 9 8 9 9 10 9 8 8 9 8 8 5 5 5 4 7 9 9 6 5 4 4 4 8 14 13 9
Wind_Direction
207 214 224 198 179 198 202 188 155 174 270 268 246 228 217 210 221 221 224 221 218 221 221 224 221 223 227 228 230 235 240 244 249 251 255 264 269 272
223 203 211 189 194 206 209 192 178 141 253 220 255 249 222 223 222 227 233 223 217 220 221 224 227 226 227 232 231 232 235 237 240 244 248 252 257 263
237 220 224 192 196 214 219 171 169 157 212 294 244 234 253 235 236 234 238 227 228 223 222 225 224 228 227 228 230 231 234 236 237 238 239 241 243 245
229 232 226 203 200 209 217 225 203 187 167 234 236 228 222 269 242 238 223 211 205 218 228 230 225 225 227 230 230 229 232 236 236 235 235 237 241 241
209 214 234 210 219 207 210 216 219 185 193 239 263 254 227 214 262 247 239 227 224 222 225 235 237 238 240 241 232 228 233 236 238 241 241 239 241 244
210 207 218 220 228 205 205 212 204 202 191 208 256 297 284 340 267 253 305 243 276 247 241 235 222 229 232 238 238 230 232 241 242 239 239 241 243 244
220 216 219 221 221 221 196 219 189 202 197 205 222 206 281 268 244 202 246 253 275 231 259 241 225 234 234 228 239 233 232 236 238 242 233 231 232 236
225 224 221 222 232 235 232 230 198 186 204 176 191 203 218 220 232 227 211 33 306 271 227 274 175 245 261 219 244 252 245 241 232 230 216 218 224 211
217 223 221 228 221 233 241 232 218 223 198 186 195 200 206 200 186 190 207 198 223 249 180 265 203 267 214 89 5 318 344 119 137 139 128 123 126 139
213 215 218 225 216 210 223 228 230 221 218 220 214 222 207 193 192 183 195 206 267 258 168 236 223 247 103 77 29 69 120 118 116 113 119 125 132 96
212 209 207 219 218 210 217 218 226 235 219 214 217 231 205 196 186 142 208 182 256 242 204 188 224 229 107 90 58 72 95 111 121 129 130 126 98 34
224 218 214 212 222 212 206 209 224 232 211 216 215 236 235 237 190 197 164 184 190 279 218 178 186 156 278 76 108 101 96 75 123 152 154 142 72 34
182 246 262 229 237 238 213 216 223 216 212 216 220 221 208 212 200 203 199 191 187 224 203 164 182 155 159 145 187 179 185 163 192 205 249 294 254 197
49 278 285 286 267 240 227 228 225 220 198 201 214 223 221 220 216 201 197 205 212 213 169 179 199 174 166 163 197 160 200 187 197 229 209 256 271 264
208 289 266 237 243 255 229 238 221 207 218 221 227 227 216 219 196 174 180 199 206 203 180 188 181 159 159 184 180 192 157 207 198 203 205 218 223 207
200 219 259 249 227 245 233 212 220 208 208 223 227 226 183 162 192 169 182 173 170 160 109 158 168 149 175 188 172 186 185 194 182 210 210 263 244 221
207 238 227 227 221 223 241 228 199 195 207 215 214 206 207 189 200 164 173 172 192 172 179 165 109 127 151 160 182 199 181 209 201 177 156 270 253 222
194 223 231 223 215 221 226 235 222 199 204 204 210 208 209 195 191 174 173 198 207 193 172 161 139 108 44 276 196 176 176 194 187 178 175 183 273 238
212 216 222 213 211 208 214 223 239 223 198 198 199 202 199 181 172 195 201 198 214 200 162 152 159 144 152 204 281 193 171 183 157 181 188 189 211 229
220 222 224 224 227 226 231 241 232 209 204 190 191 192 195 188 188 204 204 205 208 181 174 164 176 184 173 192 188 245 197 154 172 187 185 195 238 272
212 226 229 227 223 230 238 233 219 210 203 198 190 186 191 188 202 206 213 202 185 189 189 187 208 182 126 102 96 254 241 217 173 172 158 159 174 258
225 226 233 237 235 227 235 247 225 217 206 206 191 192 198 195 201 201 201 197 193 192 192 178 138 148 151 179 204 196 222 215 211 206 192 170 164 206
221 219 228 236 227 227 224 236 237 228 213 202 194 192 187 193 194 192 193 201 197 183 168 148 142 146 195 199 206 213 195 200 176 183 243 225 237 249